Home   Weather   Madaba   Past weeks

Flag for Jordan Past Weather in Madaba, Jordan — Yesterday and Last 2 Weeks

Now
54 °F

Haze.


Feels Like: 54 °F
Forecast: 45 / 58 °F
Wind: No wind

Location: Amman Airport

Current Time: Dec 7, 2016 at 6:44:34 pm

Latest Report: Dec 7, 2016 at 6:00 pm


Visibility: 2 mi

Pressure: 30.24 "Hg (27.52 "Hg at 788m altitude)

Humidity: 51%

Dew Point: 36 °F

Location of MadabaLocation

Past Weather in Madaba — Graph

°F

Madaba Temperature Yesterday

Maximum temperature yesterday: 61 °F (at 1:00 pm)
Minimum temperature yesterday: 46 °F (at 3:00 am)
Average temperature yesterday: 52 °F

High & Low Weather Summary for the Past Weeks

 TemperatureHumidityPressure
High64 °F (Nov 30, 2:00 pm)100% (Dec 2, 6:00 am)30.33 "Hg (Dec 2, 6:00 am)
Low34 °F (Nov 26, 6:00 am)3% (Nov 24, 2:00 pm)29.77 "Hg (Dec 1, 2:00 pm)
Average51 °F48%30.12 "Hg
* Reported Nov 22 5:00 pm — Dec 7 5:00 pm, Madaba, Weather by CustomWeather, © 2016

Note: Actual official high and low records may vary slightly from our data, if they occured in-between our weather recording intervals... More about our weather records

Advertising

Madaba Weather History for the Previous 24 Hours

Scroll right to see more
 ConditionsComfort  
Time TempWeatherWind HumidityBarometerVisibility
5:00 pm
Wed, Dec 7
55 °FHaze.No wind51%30.21 "Hg2 mi
4:00 pm59 °FHaze.5 mph45%30.21 "Hg2 mi
3:00 pm61 °FHaze.5 mph42%30.21 "Hg3 mi
2:00 pm61 °FHaze.7 mph39%30.21 "Hg3 mi
1:00 pm61 °FHaze.6 mph42%30.21 "Hg3 mi
12:00 pm61 °FHaze.5 mph42%30.24 "Hg3 mi
11:00 am55 °FHaze.5 mph47%30.27 "Hg2 mi
10:00 am52 °FHaze.No wind54%30.27 "Hg2 mi
9:00 am48 °FHaze.No wind54%30.27 "Hg3 mi
8:00 am43 °FHaze.No wind71%30.24 "Hg3 mi
7:00 am43 °FHaze.No wind76%30.24 "Hg3 mi
6:00 am43 °FClear.No wind71%30.24 "Hg4 mi
5:00 am43 °FClear.No wind71%30.24 "Hg4 mi
4:00 am43 °FClear.No wind71%30.24 "Hg4 mi
3:00 am45 °FClear.3 mph66%30.24 "Hg4 mi
2:00 am45 °FClear.No wind71%30.27 "Hg4 mi
1:00 am46 °FClear.No wind76%30.27 "Hg4 mi
12:00 am48 °FClear.No wind66%30.27 "Hg4 mi
11:00 pm
Tue, Dec 6
48 °FClear.No wind71%30.27 "Hg4 mi
10:00 pm48 °FHaze.No wind71%30.27 "Hg3 mi
9:00 pm50 °FHaze.No wind67%30.27 "Hg3 mi
8:00 pm52 °FHaze.5 mph58%30.27 "Hg3 mi
7:00 pm54 °FHaze.5 mph54%30.24 "Hg3 mi
6:00 pm54 °FHaze.5 mph58%30.21 "Hg3 mi
Weather by CustomWeather, © 2016

See weather overviewHow to use our weather pages